Stations météo

réclame
Mon MeteoGroup
Toulouse/Blagnac, France (7630): Température de l'air & dewpoint: 18.10.2018 07:00:00 - 24.10.2018 07:00:00 (CEST)Toulouse/Blagnac, France (7630): Température de l'air 5cm: 18.10.2018 07:00:00 - 24.10.2018 07:00:00 (CEST)Toulouse/Blagnac, France (7630): Température de l'air -20cm & Température de l'air -100cm: 18.10.2018 07:00:00 - 24.10.2018 07:00:00 (CEST)Toulouse/Blagnac, France (7630): Vitesse du vent & gusts: 18.10.2018 07:00:00 - 24.10.2018 07:00:00 (CEST)Toulouse/Blagnac, France (7630): Direction du vent: 18.10.2018 07:00:00 - 24.10.2018 07:00:00 (CEST)Toulouse/Blagnac, France (7630): reduced air pressure: 18.10.2018 07:00:00 - 24.10.2018 07:00:00 (CEST)Toulouse/Blagnac, France (7630): visibility: 18.10.2018 07:00:00 - 24.10.2018 07:00:00 (CEST)Toulouse/Blagnac, France (7630): Ensoleillement: 18.10.2018 07:00:00 - 24.10.2018 07:00:00 (CEST)Toulouse/Blagnac, France (7630): Quantités de précipitations: 18.10.2018 07:00:00 - 24.10.2018 07:00:00 (CEST)
Date & Time tt [°C] td [°C] tt 5cm [°C] tt -20cm [°C] tt -100cm [°C] ff [km/h] ff [knt] fx [km/h] fx [knt] dd ppp [hPa] vv [km] sd [min] rr [mm]
24.10.2018 07:00:00 9,4 8,2 7,2 15,7 18,4 9 5 18 10 W 1028,9 8 0 0,0
24.10.2018 06:00:00 9,4 8,2 7,2 15,8 18,4 9 5 19 10 WNW 1029,1 9 0 0,0
24.10.2018 05:00:00 9,5 7,9 4,9 16,0 18,4 9 5 19 10 W 1029,2 10 0 0,0
24.10.2018 04:00:00 8,5 7,0 4,8 16,0 18,4 3 2 9 5 W 1029,8 14 0 0,0
24.10.2018 03:00:00 9,0 7,4 5,1 16,2 18,4 7 4 11 6 SSW 1029,7 20 0 0,0
24.10.2018 02:00:00 9,8 7,7 6,7 16,2 18,4 5 3 15 8 S 1029,7 23 0 0,0
24.10.2018 01:00:00 10,7 8,5 7,4 16,3 18,4 10 5 22 12 WSW 1029,6 30 0 0,0
24.10.2018 00:00:00 12,5 8,8 7,7 16,4 18,4 14 7 21 11 W 1030,0 35 0 0,0
23.10.2018 23:00:00 13,3 8,1 11,1 16,4 18,5 10 5 24 13 W 1029,9 36 0 0,0
23.10.2018 22:00:00 14,0 8,6 11,8 16,5 18,4 19 11 27 15 WSW 1029,1 33 0 0,0
23.10.2018 21:00:00 13,7 9,1 11,7 16,5 18,5 14 7 20 11 WNW 1029,7 31 0 0,0
23.10.2018 20:00:00 14,5 9,5 11,3 16,5 18,5 12 6 23 12 W 1029,3 35 0 0,0
23.10.2018 19:00:00 16,0 9,4 14,5 16,4 18,5 15 8 24 13 WNW 1028,9 12 36 0,0
23.10.2018 18:00:00 18,1 9,2 19,0 16,3 18,5 15 8 27 15 WNW 1028,5 9 60 0,0
23.10.2018 17:00:00 19,0 9,2 19,7 16,2 18,5 16 9 32 17 WNW 1028,6 10 60 0,0
23.10.2018 16:00:00 18,9 9,9 23,2 16,0 18,5 18 10 27 15 W 1028,4 10 60 0,0
23.10.2018 15:00:00 18,5 9,8 23,8 15,8 18,5 14 8 23 13 W 1028,6 6 60 0,0
23.10.2018 14:00:00 17,3 9,5 23,5 15,7 18,5 9 5 23 12 WNW 1029,2 9 60 0,0
23.10.2018 13:00:00 16,2 9,6 21,6 15,7 18,5 8 4 21 11 W 1029,7 8 60 0,0
23.10.2018 12:00:00 14,7 9,1 19,7 15,7 18,5 9 5 20 11 W 1029,9 19 60 0,0
23.10.2018 11:00:00 12,7 8,8 15,1 15,8 18,5 6 4 18 10 NNW 1030,4 11 60 0,0
23.10.2018 10:00:00 11,3 9,4 9,6 15,9 18,6 10 6 21 11 W 1029,8 11 60 0,0
23.10.2018 09:00:00 9,0 8,2 5,0 16,0 18,6 3 1 14 8 SSW 1029,9 8 20 0,0
23.10.2018 08:00:00 8,0 7,2 4,7 16,1 18,6 7 4 13 7 S 1029,4 8 0 0,0
23.10.2018 07:00:00 8,6 7,7 5,3 16,2 18,6 4 2 18 10 S 1029,3 9 0 0,0
23.10.2018 06:00:00 8,6 7,2 5,7 16,3 18,6 8 5 12 6 SSE 1029,1 9 0 0,0
23.10.2018 05:00:00 9,6 8,0 6,7 16,4 18,6 9 5 13 7 W 1028,6 15 0 0,0
23.10.2018 04:00:00 10,5 8,3 8,9 16,5 18,6 9 5 21 11 NW 1028,6 17 0 0,0
23.10.2018 03:00:00 11,5 8,4 9,9 16,6 18,6 16 8 26 14 W 1028,4 19 0 0,0
23.10.2018 02:00:00 11,9 8,0 10,1 16,7 18,6 13 7 25 13 W 1028,4 26 0 0,0
23.10.2018 01:00:00 12,5 7,8 10,9 16,8 18,6 18 10 27 15 W 1028,4 30 0 0,0
23.10.2018 00:00:00 13,3 7,9 11,7 16,9 18,6 21 11 31 17 W 1028,1 28 0 0,0
22.10.2018 23:00:00 13,9 7,9 12,4 16,9 18,6 19 10 31 17 W 1027,8 28 0 0,0
22.10.2018 22:00:00 14,2 8,2 12,4 17,0 18,6 18 10 29 16 W 1027,4 23 0 0,0
22.10.2018 21:00:00 14,1 8,7 11,1 17,0 18,6 16 9 22 12 W 1027,2 21 0 0,0
22.10.2018 20:00:00 13,6 8,2 11,6 17,0 18,6 11 6 17 9 W 1027,0 22 0 0,0
22.10.2018 19:00:00 15,0 10,0 13,3 17,0 18,6 10 5 24 13 NW 1026,2 16 38 0,0
22.10.2018 18:00:00 16,7 11,2 18,6 16,9 18,6 16 9 35 19 NNW 1025,5 13 58 0,0
22.10.2018 17:00:00 18,3 10,6 19,8 16,9 18,6 20 11 32 17 NW 1025,0 9 55 0,0
22.10.2018 16:00:00 18,0 10,4 20,0 16,8 18,6 21 11 33 18 WNW 1024,6 8 50 0,0
22.10.2018 15:00:00 17,8 10,4 18,7 16,7 18,7 21 11 31 17 W 1024,7 13 45 0,0
22.10.2018 14:00:00 16,4 10,0 16,7 16,6 18,7 18 10 31 17 WNW 1025,2 10 18 0,0
22.10.2018 13:00:00 15,3 10,3 16,5 16,6 18,6 22 12 31 17 WNW 1025,5 13 20 0,0
22.10.2018 12:00:00 15,2 11,2 14,8 16,6 18,7 18 10 35 19 W 1025,4 11 2 0,0
22.10.2018 11:00:00 14,3 11,4 13,8 16,7 18,7 19 10 27 14 W 1025,1 9 0 0,0
22.10.2018 10:00:00 13,5 11,9 12,8 16,8 18,7 12 7 32 18 WNW 1024,9 8 0 0,0
22.10.2018 09:00:00 13,0 11,6 12,4 16,8 18,7 29 15 41 22 W 1023,8 7 0 0,0
22.10.2018 08:00:00 12,7 11,9 12,1 16,9 18,7 19 10 31 17 W 1023,4 8 0 0,0
22.10.2018 07:00:00 12,2 11,9 11,9 17,0 18,7 17 9 27 15 WNW 1023,5 1,9 0 0,0
22.10.2018 06:00:00 11,9 11,6 6,5 17,1 18,7 10 6 15 8 NW 1023,0 0,2 0 0,0
22.10.2018 05:00:00 10,2 9,7 6,1 17,2 18,7 2 1 8 4 ESE 1022,4 0,2 0 0,0
22.10.2018 04:00:00 10,6 10,1 6,5 17,3 18,7 3 2 8 4 SW 1022,4 0,8 0 0,0
22.10.2018 03:00:00 10,9 10,4 8,0 17,5 18,7 5 3 9 5 SSW 1022,2 0,1 0 0,0
22.10.2018 02:00:00 11,6 11,1 7,8 17,5 18,7 5 3 11 6 S 1022,4 0,2 0 0,0
22.10.2018 01:00:00 11,6 11,1 7,6 17,7 18,7 8 4 12 6 S 1022,0 2,3 0 0,0
22.10.2018 00:00:00 12,4 11,6 8,4 17,7 18,7 7 4 12 7 S 1022,0 1,0 0 0,0
21.10.2018 23:00:00 14,6 13,5 9,9 17,8 18,7 6 3 19 10 WNW 1021,9 3,1 0 0,0
21.10.2018 22:00:00 15,1 13,8 12,0 17,9 18,7 11 6 17 9 WSW 1021,7 7 0 0,0
21.10.2018 21:00:00 15,3 13,3 13,3 17,8 18,7 8 4 27 14 NW 1021,7 7 0 0,0
21.10.2018 20:00:00 16,0 13,5 13,7 17,9 18,7 14 7 25 14 WNW 1021,5 4,2 0 0,0
21.10.2018 19:00:00 17,0 13,7 14,5 17,8 18,7 6 4 21 12 WNW 1021,0 13 39 0,0
21.10.2018 18:00:00 18,6 14,5 20,0 17,7 18,7 13 7 19 10 W 1021,0 4,2 60 0,0
21.10.2018 17:00:00 19,0 14,3 20,3 17,6 18,7 13 7 23 12 WNW 1021,3 8 57 0,0
21.10.2018 16:00:00 18,0 14,3 20,9 17,5 18,7 13 7 21 11 WNW 1021,9 13 24 0,0
21.10.2018 15:00:00 17,1 14,0 20,5 17,4 18,7 10 6 27 15 NNW 1022,6 13 1 0,0
21.10.2018 14:00:00 16,3 14,5 18,0 17,3 18,7 6 3 16 9 W 1023,2 10 0 0,0
21.10.2018 13:00:00 14,9 14,3 17,5 17,3 18,7 6 3 16 9 WSW 1024,0 8 0 0,0
21.10.2018 12:00:00 14,5 14,0 15,5 17,3 18,7 2 1 9 5 E 1024,4 4,5 0 0,0
21.10.2018 11:00:00 14,1 13,8 14,6 17,3 18,8 4 2 10 6 W 1024,6 2,1 0 0,0
21.10.2018 10:00:00 14,1 13,8 14,2 17,3 18,7 4 2 15 8 WNW 1024,7 1,9 0 0,0
21.10.2018 09:00:00 14,0 13,7 14,0 17,3 18,7 7 4 10 6 WSW 1024,2 0,4 0 0,0
21.10.2018 08:00:00 14,1 13,8 14,1 17,4 18,8 5 3 8 4 WSW 1023,8 0,3 0 0,0
21.10.2018 07:00:00 14,1 13,8 13,8 17,4 18,7 2 1 5 3 W 1024,1 0,2 0 0,0
21.10.2018 06:00:00 13,8 13,5 13,7 17,4 18,7 3 2 8 4 SSW 1024,2 0,1 0 0,0
21.10.2018 05:00:00 13,8 13,5 13,8 17,5 18,8 6 4 8 4 SSE 1024,3 0,1 0 0,0
21.10.2018 04:00:00 13,8 13,5 13,5 17,5 18,8 5 3 8 5 ENE 1024,7 0,1 0 0,0
21.10.2018 03:00:00 13,4 13,1 13,0 17,6 18,8 4 2 10 5 SE 1024,6 0,1 0 0,0
21.10.2018 02:00:00 13,1 12,6 12,8 17,7 18,8 8 4 11 6 S 1024,8 0,1 0 0,0
21.10.2018 01:00:00 13,2 12,7 9,5 17,8 18,8 8 5 13 7 S 1025,0 0,1 0 0,0
21.10.2018 00:00:00 12,7 12,1 9,5 17,9 18,8 6 3 8 5 S 1025,5 1,9 0 0,0
20.10.2018 23:00:00 13,4 12,6 9,7 17,9 18,8 5 3 8 4 SSW 1025,4 3,3 0 0,0
20.10.2018 22:00:00 13,7 12,6 10,1 18,0 18,8 6 3 11 6 S 1025,1 3,4 0 0,0
20.10.2018 21:00:00 14,8 13,3 11,0 18,0 18,8 4 2 10 6 SSW 1024,8 4,2 0 0,0
20.10.2018 20:00:00 15,2 13,4 12,0 18,0 18,8 5 3 10 5 WSW 1024,5 8 0 0,0
20.10.2018 19:00:00 16,3 13,4 14,4 18,0 18,8 6 3 11 6 WSW 1024,0 11 14 0,0
20.10.2018 18:00:00 17,2 13,9 17,8 18,0 18,8 8 4 18 10 NW 1023,8 13 0 0,0
20.10.2018 17:00:00 17,3 14,2 18,3 17,9 18,8 11 6 19 10 WNW 1024,1 11 0 0,0
20.10.2018 16:00:00 16,9 14,2 18,2 17,9 18,8 11 6 21 12 WNW 1024,1 11 0 0,0
20.10.2018 15:00:00 16,8 14,3 18,8 17,8 18,8 10 6 19 10 WNW 1024,4 9 0 0,0
20.10.2018 14:00:00 16,1 14,3 17,3 17,8 18,8 9 5 20 11 W 1024,6 7 0 0,0
20.10.2018 13:00:00 15,6 14,3 16,2 17,8 18,8 10 5 16 9 NW 1025,5 6 0 0,0
20.10.2018 12:00:00 15,3 14,3 16,1 17,8 18,8 9 5 16 9 W 1025,3 3,6 0 0,0
20.10.2018 11:00:00 15,1 14,6 16,0 17,8 18,8 8 4 39 21 W 1025,0 4,5 0 0,0
20.10.2018 10:00:00 15,1 14,8 15,0 17,8 18,8 8 4 19 10 WSW 1024,2 0,8 0 0,0
20.10.2018 09:00:00 14,9 14,6 14,4 17,9 18,8 3 2 10 5 W 1023,4 0,8 0 0,0
20.10.2018 08:00:00 14,6 14,1 14,6 18,0 18,8 10 6 16 9 N 1022,6 0,2 0 0,0
20.10.2018 07:00:00 15,0 14,5 12,8 18,0 18,8 11 6 19 11 NW 1022,1 0,3 0 0,0
20.10.2018 06:00:00 14,0 13,4 9,9 18,1 18,8 7 4 10 6 NW 1021,5 1,1 0 0,0
20.10.2018 05:00:00 13,6 12,7 10,2 18,2 18,8 5 3 11 6 W 1021,0 4,9 0 0,0
20.10.2018 04:00:00 14,1 13,1 11,0 18,3 18,9 6 4 9 5 S 1021,0 4,8 0 0,0
20.10.2018 03:00:00 14,9 13,6 11,5 18,3 18,8 5 3 6 3 SSW 1021,1 5 0 0,0
20.10.2018 02:00:00 16,1 14,5 14,4 18,4 18,8 2 1 11 6 NW 1021,0 3,5 0 0,0
20.10.2018 01:00:00 16,2 14,4 12,6 18,5 18,8 3 2 6 3 W 1021,0 4,9 0 0,0
20.10.2018 00:00:00 16,3 14,3 13,0 18,5 18,8 4 2 9 5 NNW 1020,8 4,5 0 0,0
19.10.2018 23:00:00 16,8 14,6 13,5 18,6 18,8 3 2 15 8 N 1020,4 5 0 0,0
19.10.2018 22:00:00 16,9 14,5 14,7 18,6 18,8 6 3 13 7 WNW 1020,0 8 0 0,0
19.10.2018 21:00:00 17,9 15,2 16,4 18,6 18,8 6 3 16 9 NNW 1019,6 9 0 0,0
19.10.2018 20:00:00 19,3 15,0 17,6 18,5 18,8 9 5 20 11 NNW 1019,3 14 0 0,0
19.10.2018 19:00:00 20,0 15,0 18,7 18,4 18,9 6 4 11 6 N 1018,2 19 43 0,0
19.10.2018 18:00:00 21,2 15,1 23,5 18,3 18,8 7 4 12 6 N 1017,7 20 60 0,0
19.10.2018 17:00:00 21,4 14,8 23,4 18,1 18,9 7 4 16 9 E 1017,7 18 35 0,0
19.10.2018 16:00:00 21,4 15,2 27,2 18,0 18,9 6 3 16 9 N 1017,6 15 60 0,0
19.10.2018 15:00:00 19,9 14,9 25,4 17,9 18,9 8 5 17 9 NNE 1017,9 10 60 0,0
19.10.2018 14:00:00 19,0 15,5 20,2 17,8 18,9 3 1 10 5 E 1018,5 8 19 0,0
19.10.2018 13:00:00 17,0 14,8 19,8 17,7 18,9 4 2 9 5 E 1019,1 7 0 0,0
19.10.2018 12:00:00 16,2 14,9 18,2 17,7 18,9 5 3 9 5 ENE 1019,0 6 0 0,0
19.10.2018 11:00:00 15,1 14,6 15,2 17,8 18,8 2 1 14 8 SW 1018,8 6 19 0,0
19.10.2018 10:00:00 14,2 13,9 13,9 17,8 18,8 10 6 16 9 S 1018,7 0,5 0 0,0
19.10.2018 09:00:00 13,6 13,1 9,9 18,0 18,9 9 5 12 7 S 1018,0 0,2 0 0,0
19.10.2018 08:00:00 13,5 12,9 9,8 18,0 18,9 2 1 5 3 S 1017,3 0,4 0 0,0
19.10.2018 07:00:00 14,1 13,5 9,5 18,1 18,9 0 0 5 3 N 1017,0 0,2 0 0,0
19.10.2018 06:00:00 14,6 14,0 11,2 18,2 18,9 4 2 6 3 SE 1016,8 2,1 0 0,0
19.10.2018 05:00:00 14,5 13,9 13,0 18,2 18,9 6 3 8 5 S 1016,9 6 0 0,0
19.10.2018 04:00:00 14,3 13,7 11,8 18,3 18,9 4 2 9 5 S 1016,6 4,6 0 0,0
19.10.2018 03:00:00 14,6 13,8 12,5 18,4 18,9 5 3 8 5 S 1016,6 6 0 0,0
19.10.2018 02:00:00 15,3 14,5 12,4 18,4 18,9 3 2 9 5 S 1016,5 5 0 0,0
19.10.2018 01:00:00 15,2 14,1 12,3 18,5 18,9 4 2 8 5 SSW 1016,6 5 0 0,0
19.10.2018 00:00:00 16,1 14,8 15,2 18,5 18,9 5 3 8 5 SSE 1016,5 4,9 0 0,0
18.10.2018 23:00:00 16,4 14,8 15,4 18,5 18,9 3 2 10 6 S 1016,4 7 0 0,0
18.10.2018 22:00:00 16,6 14,8 14,6 18,6 18,9 9 5 15 8 SW 1016,0 4,8 0 0,0
18.10.2018 21:00:00 16,1 14,3 13,5 18,6 18,9 8 5 18 10 SSW 1015,8 11 0 0,0
18.10.2018 20:00:00 17,3 14,8 14,0 18,5 18,9 6 3 7 4 SSW 1015,5 13 0 0,0
18.10.2018 19:00:00 18,3 14,6 16,3 18,4 18,9 2 1 9 5 WNW 1014,8 19 2 0,0
18.10.2018 18:00:00 19,1 15,0 20,3 18,4 18,9 6 3 10 5 N 1014,6 20 11 0,0
18.10.2018 17:00:00 19,0 14,7 21,3 18,2 18,9 4 2 23 12 SSW 1014,6 17 0 0,0
18.10.2018 16:00:00 19,0 14,5 20,2 18,1 18,9 4 2 10 5 WNW 1014,7 9 3 0,0
18.10.2018 15:00:00 18,0 13,9 20,6 18,1 18,9 4 2 10 5 SSE 1015,1 15 0 0,0
18.10.2018 14:00:00 17,8 14,3 18,8 18,0 18,9 3 2 10 5 SE 1015,5 14 2 0,0
18.10.2018 13:00:00 16,7 14,2 19,0 17,9 18,9 5 3 10 6 E 1015,9 13 1 0,0
18.10.2018 12:00:00 15,5 14,0 14,9 18,0 18,9 2 1 9 5 E 1016,2 12 0 0,0
18.10.2018 11:00:00 14,6 13,6 14,2 18,0 18,9 7 4 14 8 SSW 1016,2 7 0 2,3
18.10.2018 10:00:00 14,7 13,6 14,2 18,0 18,9 6 4 18 10 S 1016,0 5 0 3,0
18.10.2018 09:00:00 15,2 13,4 14,4 18,1 18,9 9 5 18 10 S 1015,4 13 0 0,4
18.10.2018 08:00:00 15,5 14,2 14,7 18,2 18,9 11 6 16 8 SE 1015,3 5 0 1,0
18.10.2018 07:00:00 15,3 14,3 13,6 18,2 18,9 4 2 9 5 E 1015,1 5 0 0,0

tt = Température de l'air
td = dewpoint
tt 5cm = Température de l'air 5cm
tt -20cm = Température de l'air -20cm
tt -100cm = Température de l'air -100cm
ff = Vitesse du vent
fx = gusts
dd = Direction du vent
ppp = reduced air pressure
vv = visibility
sd = Ensoleillement
rr = Quantités de précipitations

stations d'obs. à proximité